Time,TemperatureF,DewpointF,PressureIn,WindDirection,WindDirectionDegrees,WindSpeedMPH,WindSpeedGustMPH,Humidity,HourlyPrecipIn,Conditions,Clouds,dailyrainin,SoftwareType,DateUTC
2013-02-07 00:00:00,14.4,1.2,30.31,West,271,2.0,5.0,55,0.00,,,0.00,meteohub,2013-02-07 05:00:00,
2013-02-07 00:01:00,14.4,1.2,30.31,WSW,249,0.0,5.0,55,0.00,,,0.00,meteohub,2013-02-07 05:01:00,
2013-02-07 00:02:00,14.4,1.2,30.31,NW,324,0.0,5.0,55,0.00,,,0.00,meteohub,2013-02-07 05:02:00,
2013-02-07 00:05:00,14.4,1.2,30.31,NNW,340,3.0,6.0,55,0.00,,,0.00,meteohub,2013-02-07 05:05:00,
2013-02-07 00:10:00,14.2,1.4,30.31,NW,310,1.0,6.0,56,0.00,,,0.00,meteohub,2013-02-07 05:10:00,
2013-02-07 00:15:00,14.0,0.9,30.31,NNW,343,5.0,6.0,55,0.00,,,0.00,meteohub,2013-02-07 05:15:00,
2013-02-07 00:20:00,14.2,0.5,30.31,North,3,2.0,6.0,54,0.00,,,0.00,meteohub,2013-02-07 05:20:00,
2013-02-07 00:25:00,14.0,1.2,30.31,North,3,3.0,7.0,56,0.00,,,0.00,meteohub,2013-02-07 05:25:00,
2013-02-07 00:30:00,13.8,1.4,30.31,NNW,337,6.0,7.0,57,0.00,,,0.00,meteohub,2013-02-07 05:30:00,
2013-02-07 00:35:00,13.8,1.4,30.31,NW,309,5.0,7.0,57,0.00,,,0.00,meteohub,2013-02-07 05:35:00,
2013-02-07 00:40:00,14.0,1.2,30.31,North,6,5.0,8.0,56,0.00,,,0.00,meteohub,2013-02-07 05:40:00,
2013-02-07 00:45:00,13.8,1.0,30.31,North,351,4.0,14.0,56,0.00,,,0.00,meteohub,2013-02-07 05:45:00,
2013-02-07 00:50:00,13.8,1.4,30.31,NNW,346,4.0,14.0,57,0.00,,,0.00,meteohub,2013-02-07 05:50:00,
2013-02-07 00:56:00,13.8,1.4,30.32,North,357,1.0,8.0,57,0.00,,,0.00,meteohub,2013-02-07 05:56:00,
2013-02-07 01:01:00,13.6,1.2,30.32,NNE,32,2.0,8.0,57,0.00,,,0.00,meteohub,2013-02-07 06:01:00,
2013-02-07 01:06:00,13.6,1.6,30.32,NNW,334,4.0,8.0,58,0.00,,,0.00,meteohub,2013-02-07 06:06:00,
2013-02-07 01:11:00,13.6,1.6,30.32,NNE,18,3.0,7.0,58,0.00,,,0.00,meteohub,2013-02-07 06:11:00,
2013-02-07 01:16:00,13.6,0.9,30.32,NNW,328,3.0,7.0,56,0.00,,,0.00,meteohub,2013-02-07 06:16:00,
2013-02-07 01:21:00,13.5,1.4,30.32,WNW,289,2.0,8.0,58,0.00,,,0.00,meteohub,2013-02-07 06:21:00,
2013-02-07 01:26:00,13.5,1.4,30.33,SSE,162,2.0,8.0,58,0.00,,,0.00,meteohub,2013-02-07 06:26:00,
2013-02-07 01:31:00,13.3,1.2,30.33,SSW,194,4.0,8.0,58,0.00,,,0.00,meteohub,2013-02-07 06:31:00,
2013-02-07 01:36:00,13.3,0.9,30.33,NNW,334,3.0,9.0,57,0.00,,,0.00,meteohub,2013-02-07 06:36:00,
2013-02-07 01:41:00,13.3,0.5,30.34,North,357,3.0,9.0,56,0.00,,,0.00,meteohub,2013-02-07 06:41:00,
2013-02-07 01:46:00,13.1,0.7,30.34,NNW,336,3.0,9.0,57,0.00,,,0.00,meteohub,2013-02-07 06:46:00,
2013-02-07 01:51:00,13.1,0.7,30.34,NNW,334,2.0,7.0,57,0.00,,,0.00,meteohub,2013-02-07 06:51:00,
2013-02-07 01:56:00,12.9,0.5,30.34,NNW,334,5.0,6.0,57,0.00,,,0.00,meteohub,2013-02-07 06:56:00,
2013-02-07 02:01:00,12.7,0.3,30.34,NNW,338,3.0,6.0,57,0.00,,,0.00,meteohub,2013-02-07 07:01:00,
2013-02-07 02:06:00,12.7,0.0,30.35,North,10,5.0,8.0,56,0.00,,,0.00,meteohub,2013-02-07 07:06:00,
2013-02-07 02:11:00,12.6,0.1,30.35,North,349,3.0,8.0,57,0.00,,,0.00,meteohub,2013-02-07 07:11:00,
2013-02-07 02:17:00,12.6,0.1,30.35,NNW,343,8.0,8.0,57,0.00,,,0.00,meteohub,2013-02-07 07:17:00,
2013-02-07 02:22:00,12.6,0.1,30.35,NNW,348,5.0,10.0,57,0.00,,,0.00,meteohub,2013-02-07 07:22:00,
2013-02-07 02:27:00,12.6,0.1,30.35,NW,325,5.0,10.0,57,0.00,,,0.00,meteohub,2013-02-07 07:27:00,
2013-02-07 02:32:00,12.4,0.0,30.35,NNW,336,5.0,10.0,57,0.00,,,0.00,meteohub,2013-02-07 07:32:00,
2013-02-07 02:37:00,12.0,0.1,30.35,NNW,345,3.0,9.0,58,0.00,,,0.00,meteohub,2013-02-07 07:37:00,
2013-02-07 02:42:00,12.0,0.1,30.35,NNW,332,5.0,8.0,58,0.00,,,0.00,meteohub,2013-02-07 07:42:00,
2013-02-07 02:47:00,11.8,0.7,30.35,NNW,333,0.0,8.0,60,0.00,,,0.00,meteohub,2013-02-07 07:47:00,
2013-02-07 02:52:00,11.5,0.7,30.35,NNW,337,3.0,7.0,61,0.00,,,0.00,meteohub,2013-02-07 07:52:00,
2013-02-07 02:57:00,11.5,0.7,30.35,NNW,342,1.0,8.0,61,0.00,,,0.00,meteohub,2013-02-07 07:57:00,
2013-02-07 03:02:00,11.1,0.3,30.35,NNW,343,3.0,8.0,61,0.00,,,0.00,meteohub,2013-02-07 08:02:00,
2013-02-07 03:07:00,11.1,0.7,30.35,NNW,334,1.0,8.0,62,0.00,,,0.00,meteohub,2013-02-07 08:07:00,
2013-02-07 03:12:00,10.9,-0.2,30.35,NNE,12,2.0,5.0,60,0.00,,,0.00,meteohub,2013-02-07 08:12:00,
2013-02-07 03:17:00,10.9,0.1,30.34,NNW,334,1.0,5.0,61,0.00,,,0.00,meteohub,2013-02-07 08:17:00,
2013-02-07 03:22:00,10.6,-0.2,30.35,North,351,1.0,3.0,61,0.00,,,0.00,meteohub,2013-02-07 08:22:00,
2013-02-07 03:27:00,10.4,0.0,30.35,NNW,338,1.0,3.0,62,0.00,,,0.00,meteohub,2013-02-07 08:27:00,
2013-02-07 03:32:00,10.2,-0.2,30.35,NW,311,2.0,3.0,62,0.00,,,0.00,meteohub,2013-02-07 08:32:00,
2013-02-07 03:37:00,10.0,0.0,30.36,NNW,347,0.0,3.0,63,0.00,,,0.00,meteohub,2013-02-07 08:37:00,
2013-02-07 03:42:00,9.9,-0.2,30.36,NNW,335,0.0,3.0,63,0.00,,,0.00,meteohub,2013-02-07 08:42:00,
2013-02-07 03:47:00,9.7,-0.8,30.37,NNE,15,0.0,4.0,62,0.00,,,0.00,meteohub,2013-02-07 08:47:00,
2013-02-07 03:52:00,9.9,-0.6,30.36,North,357,0.0,4.0,62,0.00,,,0.00,meteohub,2013-02-07 08:52:00,
2013-02-07 03:57:00,10.0,-0.8,30.37,North,10,1.0,7.0,61,0.00,,,0.00,meteohub,2013-02-07 08:57:00,
2013-02-07 04:02:00,10.0,-0.8,30.38,NNW,337,2.0,8.0,61,0.00,,,0.00,meteohub,2013-02-07 09:02:00,
2013-02-07 04:07:00,9.9,-1.3,30.38,NNW,344,6.0,8.0,60,0.00,,,0.00,meteohub,2013-02-07 09:07:00,
2013-02-07 04:12:00,9.9,-1.3,30.38,NW,311,3.0,9.0,60,0.00,,,0.00,meteohub,2013-02-07 09:12:00,
2013-02-07 04:17:00,9.9,-0.9,30.39,NW,316,3.0,9.0,61,0.00,,,0.00,meteohub,2013-02-07 09:17:00,
2013-02-07 04:22:00,9.7,-1.1,30.39,WNW,286,2.0,9.0,61,0.00,,,0.00,meteohub,2013-02-07 09:22:00,
2013-02-07 04:27:00,9.5,-0.9,30.39,NNW,334,0.0,8.0,62,0.00,,,0.00,meteohub,2013-02-07 09:27:00,
2013-02-07 04:32:00,9.3,-1.1,30.39,NW,315,0.0,3.0,62,0.00,,,0.00,meteohub,2013-02-07 09:32:00,
2013-02-07 04:37:00,9.1,-1.3,30.39,West,261,3.0,5.0,62,0.00,,,0.00,meteohub,2013-02-07 09:37:00,
2013-02-07 04:42:00,9.1,-0.9,30.39,West,280,1.0,5.0,63,0.00,,,0.00,meteohub,2013-02-07 09:42:00,
2013-02-07 04:47:00,9.1,-0.9,30.39,NE,37,1.0,5.0,63,0.00,,,0.00,meteohub,2013-02-07 09:47:00,
2013-02-07 04:52:00,9.0,-0.8,30.39,ESE,118,1.0,5.0,64,0.00,,,0.00,meteohub,2013-02-07 09:52:00,
2013-02-07 04:57:00,9.0,-0.8,30.39,NNW,333,0.0,7.0,64,0.00,,,0.00,meteohub,2013-02-07 09:57:00,
2013-02-07 05:02:00,8.8,-0.9,30.39,North,350,2.0,7.0,64,0.00,,,0.00,meteohub,2013-02-07 10:02:00,
2013-02-07 05:07:00,8.8,-0.9,30.39,NW,318,0.0,7.0,64,0.00,,,0.00,meteohub,2013-02-07 10:07:00,
2013-02-07 05:12:00,9.0,0.0,30.39,SE,143,0.0,7.0,66,0.00,,,0.00,meteohub,2013-02-07 10:12:00,
2013-02-07 05:17:00,9.0,-0.4,30.39,NW,314,3.0,6.0,65,0.00,,,0.00,meteohub,2013-02-07 10:17:00,
2013-02-07 05:22:00,9.0,-0.4,30.40,North,359,1.0,5.0,65,0.00,,,0.00,meteohub,2013-02-07 10:22:00,
2013-02-07 05:27:00,9.0,-0.8,30.40,NW,320,0.0,5.0,64,0.00,,,0.00,meteohub,2013-02-07 10:27:00,
2013-02-07 05:32:00,9.0,-0.8,30.40,North,352,0.0,5.0,64,0.00,,,0.00,meteohub,2013-02-07 10:32:00,
2013-02-07 05:37:00,9.0,-0.8,30.40,North,350,1.0,3.0,64,0.00,,,0.00,meteohub,2013-02-07 10:37:00,
2013-02-07 05:42:00,9.0,-1.1,30.40,NW,320,3.0,4.0,63,0.00,,,0.00,meteohub,2013-02-07 10:42:00,
2013-02-07 05:47:00,8.8,-1.3,30.40,North,355,1.0,6.0,63,0.00,,,0.00,meteohub,2013-02-07 10:47:00,
2013-02-07 05:52:00,8.8,-1.3,30.40,NNW,329,0.0,6.0,63,0.00,,,0.00,meteohub,2013-02-07 10:52:00,
2013-02-07 05:57:00,8.8,-0.9,30.41,West,264,5.0,5.0,64,0.00,,,0.00,meteohub,2013-02-07 10:57:00,
2013-02-07 06:02:00,8.8,-0.6,30.41,WNW,286,0.0,5.0,65,0.00,,,0.00,meteohub,2013-02-07 11:02:00,
2013-02-07 06:07:00,8.6,-0.8,30.41,WNW,303,0.0,5.0,65,0.00,,,0.00,meteohub,2013-02-07 11:07:00,
2013-02-07 06:12:00,8.4,-0.6,30.41,NNW,340,0.0,5.0,66,0.00,,,0.00,meteohub,2013-02-07 11:12:00,
2013-02-07 06:17:00,8.4,-0.9,30.42,North,359,3.0,6.0,65,0.00,,,0.00,meteohub,2013-02-07 11:17:00,
2013-02-07 06:22:00,8.2,-1.1,30.42,North,351,0.0,6.0,65,0.00,,,0.00,meteohub,2013-02-07 11:22:00,
2013-02-07 06:27:00,8.2,-0.8,30.42,ENE,72,0.0,6.0,66,0.00,,,0.00,meteohub,2013-02-07 11:27:00,
2013-02-07 06:32:00,8.2,-0.8,30.42,North,351,0.0,5.0,66,0.00,,,0.00,meteohub,2013-02-07 11:32:00,
2013-02-07 06:37:00,8.2,-0.8,30.43,ESE,119,0.0,5.0,66,0.00,,,0.00,meteohub,2013-02-07 11:37:00,
2013-02-07 06:42:00,8.1,-0.6,30.43,NNE,27,0.0,4.0,67,0.00,,,0.00,meteohub,2013-02-07 11:42:00,
2013-02-07 06:47:00,8.1,-0.6,30.43,NNE,20,0.0,2.0,67,0.00,,,0.00,meteohub,2013-02-07 11:47:00,
2013-02-07 06:52:00,7.9,-0.8,30.44,South,180,0.0,3.0,67,0.00,,,0.00,meteohub,2013-02-07 11:52:00,
2013-02-07 06:57:00,7.9,-0.8,30.44,NNW,335,1.0,6.0,67,0.00,,,0.00,meteohub,2013-02-07 11:57:00,
2013-02-07 07:02:00,7.9,-0.4,30.45,North,1,0.0,6.0,68,0.00,,,0.00,meteohub,2013-02-07 12:02:00,
2013-02-07 07:07:00,7.7,-0.6,30.45,ESE,112,0.0,6.0,68,0.00,,,0.00,meteohub,2013-02-07 12:07:00,
2013-02-07 07:12:00,7.7,-0.4,30.45,SE,142,0.0,2.0,69,0.00,,,0.00,meteohub,2013-02-07 12:12:00,
2013-02-07 07:17:00,7.5,-0.6,30.46,SE,136,1.0,2.0,69,0.00,,,0.00,meteohub,2013-02-07 12:17:00,
2013-02-07 07:22:00,7.5,-0.2,30.46,ESE,113,0.0,3.0,70,0.00,,,0.00,meteohub,2013-02-07 12:22:00,
2013-02-07 07:27:00,7.5,0.1,30.47,ESE,113,0.0,3.0,71,0.00,,,0.00,meteohub,2013-02-07 12:27:00,
2013-02-07 07:32:00,7.5,-0.2,30.48,ENE,64,1.0,3.0,70,0.00,,,0.00,meteohub,2013-02-07 12:32:00,
2013-02-07 07:37:00,7.5,-0.2,30.48,NNW,340,1.0,2.0,70,0.00,,,0.00,meteohub,2013-02-07 12:37:00,
2013-02-07 07:42:00,7.7,0.0,30.48,ESE,122,1.0,4.0,70,0.00,,,0.00,meteohub,2013-02-07 12:42:00,
2013-02-07 07:47:00,7.7,-0.4,30.48,North,5,0.0,5.0,69,0.00,,,0.00,meteohub,2013-02-07 12:47:00,
2013-02-07 07:52:00,7.9,-0.2,30.48,North,349,0.0,5.0,69,0.00,,,0.00,meteohub,2013-02-07 12:52:00,
2013-02-07 07:57:00,7.9,0.1,30.48,ESE,113,0.0,8.0,70,0.00,,,0.00,meteohub,2013-02-07 12:57:00,
2013-02-07 08:02:00,7.9,-0.2,30.48,North,357,0.0,8.0,69,0.00,,,0.00,meteohub,2013-02-07 13:02:00,
2013-02-07 08:07:00,8.1,0.3,30.48,North,355,1.0,4.0,70,0.00,,,0.00,meteohub,2013-02-07 13:07:00,
2013-02-07 08:12:00,8.1,-0.2,30.49,NNE,32,3.0,3.0,68,0.00,,,0.00,meteohub,2013-02-07 13:12:00,
2013-02-07 08:17:00,8.2,-0.4,30.49,NNW,345,3.0,9.0,67,0.00,,,0.00,meteohub,2013-02-07 13:17:00,
2013-02-07 08:23:00,8.4,-0.2,30.49,North,3,3.0,9.0,67,0.00,,,0.00,meteohub,2013-02-07 13:23:00,
2013-02-07 08:28:00,8.6,-0.4,30.50,NW,323,2.0,8.0,66,0.00,,,0.00,meteohub,2013-02-07 13:28:00,
2013-02-07 08:33:00,8.8,-0.2,30.50,West,280,1.0,9.0,66,0.00,,,0.00,meteohub,2013-02-07 13:33:00,
2013-02-07 08:38:00,9.0,-0.4,30.51,WNW,301,5.0,9.0,65,0.00,,,0.00,meteohub,2013-02-07 13:38:00,
2013-02-07 08:43:00,9.1,-0.2,30.51,North,6,4.0,9.0,65,0.00,,,0.00,meteohub,2013-02-07 13:43:00,
2013-02-07 08:48:00,9.1,-0.6,30.51,NNW,332,4.0,8.0,64,0.00,,,0.00,meteohub,2013-02-07 13:48:00,
2013-02-07 08:53:00,9.7,0.0,30.51,NNW,334,2.0,8.0,64,0.00,,,0.00,meteohub,2013-02-07 13:53:00,
2013-02-07 08:58:00,9.9,-0.2,30.51,West,276,3.0,8.0,63,0.00,,,0.00,meteohub,2013-02-07 13:58:00,
2013-02-07 09:03:00,10.2,0.5,30.51,NNW,340,1.0,9.0,64,0.00,,,0.00,meteohub,2013-02-07 14:03:00,
2013-02-07 09:08:00,10.8,0.3,30.51,WNW,282,1.0,9.0,62,0.00,,,0.00,meteohub,2013-02-07 14:08:00,
2013-02-07 09:13:00,10.6,-0.6,30.52,NW,324,3.0,7.0,60,0.00,,,0.00,meteohub,2013-02-07 14:13:00,
2013-02-07 09:18:00,10.4,-0.4,30.52,NW,315,2.0,9.0,61,0.00,,,0.00,meteohub,2013-02-07 14:18:00,
2013-02-07 09:23:00,10.4,-0.8,30.51,NNW,336,3.0,9.0,60,0.00,,,0.00,meteohub,2013-02-07 14:23:00,
2013-02-07 09:28:00,10.8,-0.4,30.52,North,358,5.0,9.0,60,0.00,,,0.00,meteohub,2013-02-07 14:28:00,
2013-02-07 09:33:00,10.9,-0.6,30.52,NW,326,1.0,9.0,59,0.00,,,0.00,meteohub,2013-02-07 14:33:00,
2013-02-07 09:38:00,11.3,0.1,30.52,North,351,1.0,9.0,60,0.00,,,0.00,meteohub,2013-02-07 14:38:00,
2013-02-07 09:43:00,11.5,-0.4,30.52,NW,319,5.0,9.0,58,0.00,,,0.00,meteohub,2013-02-07 14:43:00,
2013-02-07 09:48:00,11.7,-0.2,30.53,NNW,335,4.0,9.0,58,0.00,,,0.00,meteohub,2013-02-07 14:48:00,
2013-02-07 09:53:00,11.8,0.0,30.53,NNW,328,2.0,9.0,58,0.00,,,0.00,meteohub,2013-02-07 14:53:00,
2013-02-07 09:58:00,12.0,-0.2,30.53,WNW,283,3.0,9.0,57,0.00,,,0.00,meteohub,2013-02-07 14:58:00,
2013-02-07 10:04:00,12.0,-0.6,30.53,WNW,296,3.0,6.0,56,0.00,,,0.00,meteohub,2013-02-07 15:04:00,
2013-02-07 10:09:00,12.4,0.0,30.53,NNW,337,7.0,7.0,57,0.00,,,0.00,meteohub,2013-02-07 15:09:00,
2013-02-07 10:14:00,12.6,-0.2,30.53,WNW,299,8.0,10.0,56,0.00,,,0.00,meteohub,2013-02-07 15:14:00,
2013-02-07 10:19:00,12.9,-0.2,30.53,North,357,1.0,10.0,55,0.00,,,0.00,meteohub,2013-02-07 15:19:00,
2013-02-07 10:24:00,13.5,0.3,30.53,NNW,348,2.0,10.0,55,0.00,,,0.00,meteohub,2013-02-07 15:24:00,
2013-02-07 10:29:00,13.5,0.0,30.53,NNW,334,5.0,8.0,54,0.00,,,0.00,meteohub,2013-02-07 15:29:00,
2013-02-07 10:34:00,13.8,0.3,30.53,North,355,5.0,9.0,54,0.00,,,0.00,meteohub,2013-02-07 15:34:00,
2013-02-07 10:39:00,14.2,0.1,30.53,NNW,341,4.0,9.0,53,0.00,,,0.00,meteohub,2013-02-07 15:39:00,
2013-02-07 10:44:00,14.4,0.3,30.53,WNW,301,4.0,9.0,53,0.00,,,0.00,meteohub,2013-02-07 15:44:00,
2013-02-07 10:49:00,14.5,0.1,30.53,NW,308,6.0,8.0,52,0.00,,,0.00,meteohub,2013-02-07 15:49:00,
2013-02-07 10:54:00,14.5,0.1,30.53,WNW,291,1.0,8.0,52,0.00,,,0.00,meteohub,2013-02-07 15:54:00,
2013-02-07 10:59:00,15.1,0.7,30.53,NNW,328,2.0,9.0,52,0.00,,,0.00,meteohub,2013-02-07 15:59:00,
2013-02-07 11:04:00,15.3,0.3,30.53,North,11,3.0,9.0,51,0.00,,,0.00,meteohub,2013-02-07 16:04:00,
2013-02-07 11:09:00,15.4,0.5,30.53,West,269,2.0,8.0,51,0.00,,,0.00,meteohub,2013-02-07 16:09:00,
2013-02-07 11:14:00,15.6,0.7,30.53,NNW,337,6.0,11.0,51,0.00,,,0.00,meteohub,2013-02-07 16:14:00,
2013-02-07 11:19:00,15.6,0.7,30.52,NW,309,3.0,11.0,51,0.00,,,0.00,meteohub,2013-02-07 16:19:00,
2013-02-07 11:24:00,16.0,0.7,30.52,NW,313,3.0,11.0,50,0.00,,,0.00,meteohub,2013-02-07 16:24:00,
2013-02-07 11:29:00,16.3,1.0,30.52,North,350,4.0,8.0,50,0.00,,,0.00,meteohub,2013-02-07 16:29:00,
2013-02-07 11:34:00,16.3,0.5,30.52,NNW,329,1.0,8.0,49,0.00,,,0.00,meteohub,2013-02-07 16:34:00,
2013-02-07 11:39:00,16.7,0.9,30.52,ENE,67,1.0,9.0,49,0.00,,,0.00,meteohub,2013-02-07 16:39:00,
2013-02-07 11:45:00,17.2,0.9,30.52,WNW,295,1.0,10.0,48,0.00,,,0.00,meteohub,2013-02-07 16:45:00,
2013-02-07 11:50:00,17.4,1.0,30.52,NNE,32,3.0,10.0,48,0.00,,,0.00,meteohub,2013-02-07 16:50:00,
2013-02-07 11:55:00,17.6,1.8,30.51,ESE,122,0.0,10.0,49,0.00,,,0.00,meteohub,2013-02-07 16:55:00,
2013-02-07 12:00:00,18.0,1.6,30.51,North,358,5.0,6.0,48,0.00,,,0.00,meteohub,2013-02-07 17:00:00,
2013-02-07 12:05:00,17.6,1.2,30.51,West,259,1.0,8.0,48,0.00,,,0.00,meteohub,2013-02-07 17:05:00,
2013-02-07 12:10:00,17.4,1.0,30.51,WNW,293,4.0,8.0,48,0.00,,,0.00,meteohub,2013-02-07 17:10:00,
2013-02-07 12:15:00,17.2,0.9,30.50,North,0,2.0,10.0,48,0.00,,,0.00,meteohub,2013-02-07 17:15:00,
2013-02-07 12:20:00,17.2,0.9,30.50,NW,316,5.0,11.0,48,0.00,,,0.00,meteohub,2013-02-07 17:20:00,
2013-02-07 12:25:00,17.4,0.7,30.50,NW,324,6.0,11.0,47,0.00,,,0.00,meteohub,2013-02-07 17:25:00,
2013-02-07 12:30:00,17.6,1.8,30.50,NNW,331,7.0,11.0,49,0.00,,,0.00,meteohub,2013-02-07 17:30:00,
2013-02-07 12:35:00,17.6,1.2,30.50,NNW,340,6.0,11.0,48,0.00,,,0.00,meteohub,2013-02-07 17:35:00,
2013-02-07 12:40:00,17.8,1.9,30.49,NNW,341,9.0,11.0,49,0.00,,,0.00,meteohub,2013-02-07 17:40:00,
2013-02-07 12:45:00,18.0,1.6,30.49,NNW,336,6.0,9.0,48,0.00,,,0.00,meteohub,2013-02-07 17:45:00,
2013-02-07 12:50:00,18.0,1.6,30.49,North,355,3.0,10.0,48,0.00,,,0.00,meteohub,2013-02-07 17:50:00,
2013-02-07 12:55:00,18.1,1.8,30.49,North,351,5.0,10.0,48,0.00,,,0.00,meteohub,2013-02-07 17:55:00,
2013-02-07 13:00:00,18.1,2.1,30.49,NNW,331,3.0,10.0,49,0.00,,,0.00,meteohub,2013-02-07 18:00:00,
2013-02-07 13:05:00,18.5,2.1,30.49,NNW,332,1.0,8.0,48,0.00,,,0.00,meteohub,2013-02-07 18:05:00,
2013-02-07 13:10:00,18.7,2.3,30.48,NNW,338,6.0,8.0,48,0.00,,,0.00,meteohub,2013-02-07 18:10:00,
2013-02-07 13:15:00,18.9,2.8,30.49,NW,318,1.0,8.0,49,0.00,,,0.00,meteohub,2013-02-07 18:15:00,
2013-02-07 13:20:00,18.7,1.8,30.49,WNW,302,5.0,11.0,47,0.00,,,0.00,meteohub,2013-02-07 18:20:00,
2013-02-07 13:26:00,18.9,2.5,30.49,NNW,337,5.0,11.0,48,0.00,,,0.00,meteohub,2013-02-07 18:26:00,
2013-02-07 13:31:00,18.9,2.5,30.48,WNW,299,6.0,11.0,48,0.00,,,0.00,meteohub,2013-02-07 18:31:00,
2013-02-07 13:36:00,18.9,1.9,30.48,WNW,303,3.0,10.0,47,0.00,,,0.00,meteohub,2013-02-07 18:36:00,
2013-02-07 13:41:00,19.2,2.3,30.48,WNW,300,1.0,8.0,47,0.00,,,0.00,meteohub,2013-02-07 18:41:00,
2013-02-07 13:46:00,19.6,2.7,30.48,WNW,297,1.0,8.0,47,0.00,,,0.00,meteohub,2013-02-07 18:46:00,
2013-02-07 13:51:00,19.8,2.3,30.47,NE,55,3.0,6.0,46,0.00,,,0.00,meteohub,2013-02-07 18:51:00,
2013-02-07 13:56:00,19.9,3.0,30.47,NW,317,2.0,5.0,47,0.00,,,0.00,meteohub,2013-02-07 18:56:00,
2013-02-07 14:01:00,20.3,3.7,30.47,NNW,336,4.0,5.0,48,0.00,,,0.00,meteohub,2013-02-07 19:01:00,
2013-02-07 14:06:00,20.5,3.0,30.47,ESE,114,1.0,6.0,46,0.00,,,0.00,meteohub,2013-02-07 19:06:00,
2013-02-07 14:11:00,20.7,3.6,30.47,NW,310,1.0,6.0,47,0.00,,,0.00,meteohub,2013-02-07 19:11:00,
2013-02-07 14:16:00,20.8,3.4,30.47,North,349,0.0,7.0,46,0.00,,,0.00,meteohub,2013-02-07 19:16:00,
2013-02-07 14:21:00,21.0,3.9,30.46,NNW,338,1.0,7.0,47,0.00,,,0.00,meteohub,2013-02-07 19:21:00,
2013-02-07 14:26:00,21.0,3.6,30.46,North,9,0.0,7.0,46,0.00,,,0.00,meteohub,2013-02-07 19:26:00,
2013-02-07 14:31:00,21.4,3.7,30.46,NNW,341,0.0,6.0,46,0.00,,,0.00,meteohub,2013-02-07 19:31:00,
2013-02-07 14:36:00,21.4,4.3,30.46,NNW,342,0.0,6.0,47,0.00,,,0.00,meteohub,2013-02-07 19:36:00,
2013-02-07 14:41:00,21.6,4.5,30.46,North,355,1.0,5.0,47,0.00,,,0.00,meteohub,2013-02-07 19:41:00,
2013-02-07 14:46:00,21.7,4.1,30.46,North,8,0.0,4.0,46,0.00,,,0.00,meteohub,2013-02-07 19:46:00,
2013-02-07 14:51:00,21.9,4.3,30.46,NNE,27,2.0,2.0,46,0.00,,,0.00,meteohub,2013-02-07 19:51:00,
2013-02-07 14:56:00,21.9,4.3,30.46,NNW,328,2.0,6.0,46,0.00,,,0.00,meteohub,2013-02-07 19:56:00,
2013-02-07 15:01:00,21.9,3.7,30.46,NW,314,1.0,6.0,45,0.00,,,0.00,meteohub,2013-02-07 20:01:00,
2013-02-07 15:06:00,21.9,3.4,30.46,NW,318,0.0,6.0,44,0.00,,,0.00,meteohub,2013-02-07 20:06:00,
2013-02-07 15:12:00,21.9,3.7,30.46,NNE,14,2.0,7.0,45,0.00,,,0.00,meteohub,2013-02-07 20:12:00,
2013-02-07 15:17:00,21.9,4.8,30.46,North,3,0.0,7.0,47,0.00,,,0.00,meteohub,2013-02-07 20:17:00,
2013-02-07 15:22:00,21.7,3.7,30.46,WNW,292,0.0,7.0,45,0.00,,,0.00,meteohub,2013-02-07 20:22:00,
2013-02-07 15:27:00,21.7,4.6,30.45,East,99,0.0,4.0,47,0.00,,,0.00,meteohub,2013-02-07 20:27:00,
2013-02-07 15:32:00,21.9,5.2,30.45,North,356,1.0,4.0,48,0.00,,,0.00,meteohub,2013-02-07 20:32:00,
2013-02-07 15:37:00,21.7,4.1,30.46,WNW,290,2.0,4.0,46,0.00,,,0.00,meteohub,2013-02-07 20:37:00,
2013-02-07 15:42:00,21.6,4.5,30.46,NNW,346,1.0,4.0,47,0.00,,,0.00,meteohub,2013-02-07 20:42:00,
2013-02-07 15:47:00,21.6,3.6,30.46,NNW,337,1.0,4.0,45,0.00,,,0.00,meteohub,2013-02-07 20:47:00,
2013-02-07 15:52:00,21.6,4.5,30.46,North,1,0.0,4.0,47,0.00,,,0.00,meteohub,2013-02-07 20:52:00,
2013-02-07 15:57:00,21.6,4.5,30.46,ESE,106,0.0,3.0,47,0.00,,,0.00,meteohub,2013-02-07 20:57:00,
2013-02-07 16:02:00,21.7,4.1,30.46,SSE,147,0.0,2.0,46,0.00,,,0.00,meteohub,2013-02-07 21:02:00,
2013-02-07 16:07:00,21.7,5.0,30.46,ESE,123,0.0,2.0,48,0.00,,,0.00,meteohub,2013-02-07 21:07:00,
2013-02-07 16:12:00,21.7,5.0,30.46,NW,322,0.0,1.0,48,0.00,,,0.00,meteohub,2013-02-07 21:12:00,
2013-02-07 16:17:00,21.6,5.4,30.46,NNW,327,0.0,3.0,49,0.00,,,0.00,meteohub,2013-02-07 21:17:00,
2013-02-07 16:22:00,21.6,4.8,30.46,NNW,327,0.0,3.0,48,0.00,,,0.00,meteohub,2013-02-07 21:22:00,
2013-02-07 16:27:00,21.6,5.7,30.46,SE,125,0.0,3.0,50,0.00,,,0.00,meteohub,2013-02-07 21:27:00,
2013-02-07 16:32:00,21.6,4.8,30.45,SE,125,0.0,2.0,48,0.00,,,0.00,meteohub,2013-02-07 21:32:00,
2013-02-07 16:37:00,21.6,6.3,30.45,SE,125,0.0,2.0,51,0.00,,,0.00,meteohub,2013-02-07 21:37:00,
2013-02-07 16:42:00,21.6,4.8,30.45,SE,124,0.0,2.0,48,0.00,,,0.00,meteohub,2013-02-07 21:42:00,
2013-02-07 16:47:00,21.4,4.8,30.45,SE,124,0.0,2.0,48,0.00,,,0.00,meteohub,2013-02-07 21:47:00,
2013-02-07 16:52:00,21.4,4.8,30.45,SE,124,0.0,2.0,48,0.00,,,0.00,meteohub,2013-02-07 21:52:00,
2013-02-07 16:57:00,21.2,6.3,30.46,SE,124,0.0,2.0,52,0.00,,,0.00,meteohub,2013-02-07 21:57:00,
2013-02-07 17:03:00,21.2,5.0,30.46,SE,124,0.0,0.0,49,0.00,,,0.00,meteohub,2013-02-07 22:03:00,
2013-02-07 17:08:00,21.0,5.7,30.46,SE,124,0.0,0.0,51,0.00,,,0.00,meteohub,2013-02-07 22:08:00,
2013-02-07 17:13:00,21.0,5.4,30.46,SE,124,0.0,0.0,50,0.00,,,0.00,meteohub,2013-02-07 22:13:00,
2013-02-07 17:18:00,20.8,4.6,30.46,SE,124,0.0,0.0,49,0.00,,,0.00,meteohub,2013-02-07 22:18:00,
2013-02-07 17:23:00,20.8,5.2,30.46,SE,124,0.0,0.0,50,0.00,,,0.00,meteohub,2013-02-07 22:23:00,
2013-02-07 17:28:00,20.8,5.2,30.46,SE,124,0.0,0.0,50,0.00,,,0.00,meteohub,2013-02-07 22:28:00,
2013-02-07 17:33:00,20.8,5.9,30.46,SE,124,0.0,0.0,52,0.00,,,0.00,meteohub,2013-02-07 22:33:00,
2013-02-07 17:38:00,20.7,7.5,30.47,SE,124,0.0,0.0,56,0.00,,,0.00,meteohub,2013-02-07 22:38:00,
2013-02-07 17:43:00,20.8,7.2,30.47,SE,142,0.0,0.0,55,0.00,,,0.00,meteohub,2013-02-07 22:43:00,
2013-02-07 17:48:00,20.8,8.1,30.47,SE,142,0.0,2.0,57,0.00,,,0.00,meteohub,2013-02-07 22:48:00,
2013-02-07 17:53:00,20.7,7.0,30.47,SE,142,0.0,2.0,55,0.00,,,0.00,meteohub,2013-02-07 22:53:00,
2013-02-07 17:58:00,20.7,7.5,30.48,SE,142,0.0,1.0,56,0.00,,,0.00,meteohub,2013-02-07 22:58:00,
2013-02-07 18:03:00,20.7,8.2,30.47,SE,142,0.0,1.0,58,0.00,,,0.00,meteohub,2013-02-07 23:03:00,
2013-02-07 18:08:00,20.7,9.3,30.47,SE,142,0.0,0.0,61,0.00,,,0.00,meteohub,2013-02-07 23:08:00,
2013-02-07 18:13:00,20.7,9.3,30.47,SE,142,0.0,1.0,61,0.00,,,0.00,meteohub,2013-02-07 23:13:00,
2013-02-07 18:18:00,20.7,9.0,30.48,SE,142,0.0,1.0,60,0.00,,,0.00,meteohub,2013-02-07 23:18:00,
2013-02-07 18:23:00,20.7,7.9,30.48,SE,142,0.0,1.0,57,0.00,,,0.00,meteohub,2013-02-07 23:23:00,
2013-02-07 18:28:00,20.7,8.2,30.48,SE,142,0.0,1.0,58,0.00,,,0.00,meteohub,2013-02-07 23:28:00,
2013-02-07 18:33:00,20.7,7.9,30.48,SE,142,0.0,0.0,57,0.00,,,0.00,meteohub,2013-02-07 23:33:00,
2013-02-07 18:38:00,20.7,7.0,30.47,SE,142,0.0,1.0,55,0.00,,,0.00,meteohub,2013-02-07 23:38:00,
2013-02-07 18:43:00,20.7,5.9,30.48,ESE,119,0.0,1.0,52,0.00,,,0.00,meteohub,2013-02-07 23:43:00,
2013-02-07 18:48:00,20.7,6.3,30.48,SE,127,1.0,1.0,53,0.00,,,0.00,meteohub,2013-02-07 23:48:00,
2013-02-07 18:53:00,20.7,5.4,30.48,SE,132,0.0,2.0,51,0.00,,,0.00,meteohub,2013-02-07 23:53:00,
2013-02-07 18:58:00,20.7,6.3,30.48,SE,132,0.0,2.0,53,0.00,,,0.00,meteohub,2013-02-07 23:58:00,
2013-02-07 19:04:00,20.5,6.1,30.48,SE,132,0.0,2.0,53,0.00,,,0.00,meteohub,2013-02-08 00:04:00,
2013-02-07 19:09:00,20.7,6.3,30.48,SE,132,0.0,2.0,53,0.00,,,0.00,meteohub,2013-02-08 00:09:00,
2013-02-07 19:14:00,20.5,5.7,30.48,SE,132,0.0,1.0,52,0.00,,,0.00,meteohub,2013-02-08 00:14:00,
2013-02-07 19:19:00,20.5,6.8,30.48,SE,132,0.0,1.0,55,0.00,,,0.00,meteohub,2013-02-08 00:19:00,
2013-02-07 19:24:00,20.3,6.8,30.48,ENE,62,0.0,1.0,55,0.00,,,0.00,meteohub,2013-02-08 00:24:00,
2013-02-07 19:29:00,20.3,6.8,30.48,ENE,62,0.0,1.0,55,0.00,,,0.00,meteohub,2013-02-08 00:29:00,
2013-02-07 19:34:00,20.3,6.3,30.48,ENE,62,0.0,1.0,54,0.00,,,0.00,meteohub,2013-02-08 00:34:00,
2013-02-07 19:39:00,20.1,5.7,30.48,ENE,62,0.0,1.0,53,0.00,,,0.00,meteohub,2013-02-08 00:39:00,
2013-02-07 19:44:00,20.1,6.6,30.48,ENE,62,0.0,1.0,55,0.00,,,0.00,meteohub,2013-02-08 00:44:00,
2013-02-07 19:49:00,20.1,5.7,30.48,ESE,102,0.0,0.0,53,0.00,,,0.00,meteohub,2013-02-08 00:49:00,
2013-02-07 19:54:00,20.1,5.4,30.48,ESE,114,1.0,1.0,52,0.00,,,0.00,meteohub,2013-02-08 00:54:00,
2013-02-07 19:59:00,20.3,5.9,30.48,South,173,0.0,2.0,53,0.00,,,0.00,meteohub,2013-02-08 00:59:00,
2013-02-07 20:04:00,20.1,6.1,30.47,South,173,0.0,2.0,54,0.00,,,0.00,meteohub,2013-02-08 01:04:00,
2013-02-07 20:09:00,20.1,6.1,30.47,South,173,0.0,2.0,54,0.00,,,0.00,meteohub,2013-02-08 01:09:00,
2013-02-07 20:14:00,20.1,4.8,30.47,South,173,0.0,2.0,51,0.00,,,0.00,meteohub,2013-02-08 01:14:00,
2013-02-07 20:19:00,20.1,6.1,30.47,South,173,0.0,0.0,54,0.00,,,0.00,meteohub,2013-02-08 01:19:00,
2013-02-07 20:24:00,20.1,7.0,30.46,South,173,0.0,0.0,56,0.00,,,0.00,meteohub,2013-02-08 01:24:00,
2013-02-07 20:29:00,20.1,5.7,30.46,South,174,0.0,1.0,53,0.00,,,0.00,meteohub,2013-02-08 01:29:00,
2013-02-07 20:34:00,20.1,6.1,30.47,SE,145,2.0,2.0,54,0.00,,,0.00,meteohub,2013-02-08 01:34:00,
2013-02-07 20:39:00,20.1,6.1,30.47,SE,140,0.0,2.0,54,0.00,,,0.00,meteohub,2013-02-08 01:39:00,
2013-02-07 20:45:00,20.3,6.3,30.46,SE,140,0.0,2.0,54,0.00,,,0.00,meteohub,2013-02-08 01:45:00,
2013-02-07 20:50:00,20.3,6.3,30.47,SE,140,0.0,2.0,54,0.00,,,0.00,meteohub,2013-02-08 01:50:00,
2013-02-07 20:55:00,20.3,7.2,30.47,SE,140,0.0,2.0,56,0.00,,,0.00,meteohub,2013-02-08 01:55:00,
2013-02-07 21:00:00,20.3,7.2,30.46,SE,140,0.0,1.0,56,0.00,,,0.00,meteohub,2013-02-08 02:00:00,
2013-02-07 21:05:00,20.3,5.9,30.47,SE,139,0.0,1.0,53,0.00,,,0.00,meteohub,2013-02-08 02:05:00,
2013-02-07 21:10:00,20.3,6.3,30.47,SE,139,0.0,1.0,54,0.00,,,0.00,meteohub,2013-02-08 02:10:00,
2013-02-07 21:15:00,20.1,6.6,30.46,SE,139,0.0,1.0,55,0.00,,,0.00,meteohub,2013-02-08 02:15:00,
2013-02-07 21:20:00,20.1,4.8,30.47,SE,143,0.0,1.0,51,0.00,,,0.00,meteohub,2013-02-08 02:20:00,
2013-02-07 21:25:00,20.1,5.4,30.47,ESE,108,1.0,2.0,52,0.00,,,0.00,meteohub,2013-02-08 02:25:00,
2013-02-07 21:30:00,20.1,5.4,30.47,ESE,121,0.0,2.0,52,0.00,,,0.00,meteohub,2013-02-08 02:30:00,
2013-02-07 21:35:00,20.1,4.8,30.47,SE,128,1.0,3.0,51,0.00,,,0.00,meteohub,2013-02-08 02:35:00,
2013-02-07 21:40:00,20.1,5.7,30.46,SE,128,0.0,3.0,53,0.00,,,0.00,meteohub,2013-02-08 02:40:00,
2013-02-07 21:45:00,20.1,5.4,30.46,SE,128,0.0,3.0,52,0.00,,,0.00,meteohub,2013-02-08 02:45:00,
2013-02-07 21:50:00,20.1,5.4,30.47,SE,128,0.0,2.0,52,0.00,,,0.00,meteohub,2013-02-08 02:50:00,
2013-02-07 21:55:00,19.9,5.2,30.45,SE,128,0.0,1.0,52,0.00,,,0.00,meteohub,2013-02-08 02:55:00,
2013-02-07 22:00:00,19.9,5.5,30.45,SE,128,0.0,0.0,53,0.00,,,0.00,meteohub,2013-02-08 03:00:00,
2013-02-07 22:05:00,19.9,6.8,30.45,SSW,204,0.0,1.0,56,0.00,,,0.00,meteohub,2013-02-08 03:05:00,
2013-02-07 22:10:00,19.9,5.2,30.45,WNW,289,0.0,2.0,52,0.00,,,0.00,meteohub,2013-02-08 03:10:00,
2013-02-07 22:15:00,19.9,5.9,30.45,WNW,289,0.0,2.0,54,0.00,,,0.00,meteohub,2013-02-08 03:15:00,
2013-02-07 22:20:00,19.9,6.4,30.45,WNW,289,0.0,2.0,55,0.00,,,0.00,meteohub,2013-02-08 03:20:00,
2013-02-07 22:25:00,19.9,6.8,30.45,SSW,193,0.0,0.0,56,0.00,,,0.00,meteohub,2013-02-08 03:25:00,
2013-02-07 22:30:00,19.9,5.5,30.45,SSE,156,0.0,1.0,53,0.00,,,0.00,meteohub,2013-02-08 03:30:00,
2013-02-07 22:35:00,19.9,5.9,30.45,SSE,156,0.0,1.0,54,0.00,,,0.00,meteohub,2013-02-08 03:35:00,
2013-02-07 22:41:00,19.8,5.4,30.45,SSE,156,0.0,1.0,53,0.00,,,0.00,meteohub,2013-02-08 03:41:00,
2013-02-07 22:46:00,19.8,5.0,30.45,ESE,114,0.0,0.0,52,0.00,,,0.00,meteohub,2013-02-08 03:46:00,
2013-02-07 22:51:00,19.8,5.7,30.44,ESE,114,0.0,2.0,54,0.00,,,0.00,meteohub,2013-02-08 03:51:00,
2013-02-07 22:56:00,19.8,6.6,30.44,ESE,114,0.0,2.0,56,0.00,,,0.00,meteohub,2013-02-08 03:56:00,
2013-02-07 23:01:00,19.8,5.7,30.45,ESE,114,0.0,1.0,54,0.00,,,0.00,meteohub,2013-02-08 04:01:00,
2013-02-07 23:06:00,19.8,4.6,30.44,WNW,295,0.0,1.0,51,0.00,,,0.00,meteohub,2013-02-08 04:06:00,
2013-02-07 23:11:00,19.8,5.4,30.44,SE,135,0.0,2.0,53,0.00,,,0.00,meteohub,2013-02-08 04:11:00,
2013-02-07 23:16:00,19.8,5.7,30.44,West,264,0.0,2.0,54,0.00,,,0.00,meteohub,2013-02-08 04:16:00,
2013-02-07 23:21:00,19.8,6.3,30.44,West,263,0.0,2.0,55,0.00,,,0.00,meteohub,2013-02-08 04:21:00,
2013-02-07 23:26:00,19.8,5.4,30.45,WNW,283,0.0,2.0,53,0.00,,,0.00,meteohub,2013-02-08 04:26:00,
2013-02-07 23:31:00,19.8,6.6,30.45,WNW,283,0.0,2.0,56,0.00,,,0.00,meteohub,2013-02-08 04:31:00,
2013-02-07 23:36:00,19.8,6.6,30.45,WSW,246,0.0,2.0,56,0.00,,,0.00,meteohub,2013-02-08 04:36:00,
2013-02-07 23:41:00,19.8,6.3,30.45,WSW,246,0.0,2.0,55,0.00,,,0.00,meteohub,2013-02-08 04:41:00,
2013-02-07 23:46:00,19.8,6.3,30.45,South,179,0.0,1.0,55,0.00,,,0.00,meteohub,2013-02-08 04:46:00,
2013-02-07 23:51:00,19.8,6.6,30.45,South,179,0.0,1.0,56,0.00,,,0.00,meteohub,2013-02-08 04:51:00,
2013-02-07 23:56:00,19.8,6.6,30.45,South,176,0.0,1.0,56,0.00,,,0.00,meteohub,2013-02-08 04:56:00,